When you browse on this site, cookies collect data to enhance your experience and personalize the content and advertising you see.
Visit our Privacy Policy to learn more. By continuing to use the site, you agree to this use of cookies and data.
  • In Romania
  • List of Countries
  • For 7 days
  • Water Temperature
  • Weather Map
  • Weather Widgets
  • user-avatar
    Login

    Hourly Weather Bujumbura

    Today, 22 September, Sunday

    Time Temperature Precipitation Wind Pressure Humidity
    00:00 +26°C° 0 mm 1 mps 692 mmHg 55%
    01:00 +26°C° 0 mm 1 mps 692 mmHg 55%
    02:00 +26°C° 0 mm 1 mps 691 mmHg 56%
    03:00 +25°C° 0 mm 1 mps 691 mmHg 57%
    04:00 +25°C° 0 mm 1 mps 691 mmHg 58%
    05:00 +25°C° 0 mm 1 mps 691 mmHg 60%
    06:00 +27°C° 0 mm 1 mps 692 mmHg 54%
    07:00 +29°C° 0 mm 1 mps 693 mmHg 49%
    08:00 +31°C° 0 mm 1 mps 693 mmHg 43%
    09:00 +32°C° 0 mm 1 mps 693 mmHg 40%
    10:00 +34°C° 0 mm 1 mps 693 mmHg 37%
    11:00 +35°C° 0 mm 1 mps 693 mmHg 33%
    12:00 +35°C° 0 mm 2 mps 692 mmHg 36%
    13:00 +34°C° 0 mm 3 mps 691 mmHg 38%
    14:00 +33°C° 0 mm 4 mps 690 mmHg 41%
    15:00 +33°C° 0 mm 4 mps 690 mmHg 41%
    16:00 +33°C° 0 mm 4 mps 690 mmHg 41%
    17:00 +34°C° 0 mm 3 mps 690 mmHg 42%
    18:00 +31°C° 0 mm 3 mps 691 mmHg 47%
    19:00 +29°C° 0 mm 2 mps 691 mmHg 52%
    20:00 +28°C° 0 mm 2 mps 692 mmHg 57%
    21:00 +27°C° 0 mm 1 mps 692 mmHg 57%
    22:00 +27°C° 0 mm 1 mps 692 mmHg 56%
    23:00 +27°C° 0 mm 1 mps 692 mmHg 55%

    Tomorrow, 23 September, Monday

    Time Temperature Precipitation Wind Pressure Humidity
    00:00 +27°C° 0 mm 1 mps 692 mmHg 55%
    01:00 +26°C° 0 mm 1 mps 691 mmHg 56%
    02:00 +26°C° 0 mm 1 mps 691 mmHg 56%
    03:00 +26°C° 0 mm 1 mps 691 mmHg 56%
    04:00 +25°C° 0 mm 1 mps 691 mmHg 56%
    05:00 +25°C° 0 mm 2 mps 691 mmHg 57%
    06:00 +27°C° 0 mm 2 mps 692 mmHg 51%
    07:00 +30°C° 0 mm 2 mps 693 mmHg 45%
    08:00 +32°C° 0 mm 2 mps 694 mmHg 39%
    09:00 +32°C° 0 mm 2 mps 693 mmHg 38%
    10:00 +34°C° 0 mm 3 mps 693 mmHg 37%
    11:00 +34°C° 0 mm 3 mps 692 mmHg 36%
    12:00 +35°C° 0 mm 3 mps 692 mmHg 35%
    13:00 +35°C° 0 mm 3 mps 691 mmHg 34%
    14:00 +35°C° 0 mm 3 mps 691 mmHg 33%
    15:00 +35°C° 0 mm 3 mps 690 mmHg 33%
    16:00 +35°C° 0 mm 3 mps 690 mmHg 34%
    17:00 +34°C° 0 mm 2 mps 690 mmHg 35%
    18:00 +32°C° 0 mm 2 mps 691 mmHg 39%
    19:00 +30°C° 0 mm 2 mps 691 mmHg 44%
    20:00 +29°C° 0 mm 1 mps 692 mmHg 49%
    21:00 +28°C° 0 mm 1 mps 692 mmHg 49%
    22:00 +28°C° 0 mm 1 mps 692 mmHg 50%
    23:00 +27°C° 0 mm 1 mps 692 mmHg 50%

    Day after tomorrow, 24 September, Tuesday

    Time Temperature Precipitation Wind Pressure Humidity
    00:00 +27°C° 0 mm 1 mps 692 mmHg 50%
    01:00 +27°C° 0 mm 1 mps 691 mmHg 50%
    02:00 +26°C° 0 mm 1 mps 691 mmHg 50%
    03:00 +26°C° 0 mm 1 mps 691 mmHg 50%
    04:00 +26°C° 0 mm 1 mps 691 mmHg 50%
    05:00 +26°C° 0 mm 2 mps 691 mmHg 51%
    06:00 +28°C° 0 mm 2 mps 692 mmHg 47%
    07:00 +30°C° 0 mm 2 mps 693 mmHg 43%
    08:00 +31°C° 0 mm 2 mps 693 mmHg 39%
    09:00 +34°C° 0 mm 2 mps 693 mmHg 36%
    10:00 +35°C° 0 mm 2 mps 693 mmHg 33%
    11:00 +36°C° 0 mm 2 mps 693 mmHg 31%
    12:00 +36°C° 0 mm 3 mps 692 mmHg 31%
    13:00 +36°C° 0 mm 3 mps 691 mmHg 31%
    14:00 +36°C° 0 mm 3 mps 690 mmHg 31%
    15:00 +35°C° 0 mm 3 mps 690 mmHg 34%
    16:00 +34°C° 0 mm 3 mps 689 mmHg 37%
    17:00 +33°C° 0 mm 3 mps 689 mmHg 40%
    18:00 +31°C° 0 mm 3 mps 690 mmHg 43%
    19:00 +30°C° 0 mm 2 mps 690 mmHg 46%
    20:00 +29°C° 0 mm 1 mps 691 mmHg 49%
    21:00 +29°C° 0 mm 1 mps 691 mmHg 48%
    22:00 +28°C° 0 mm 1 mps 691 mmHg 48%
    23:00 +26°C° 0 mm 0 mps 691 mmHg 48%

    25 September, Wednesday

    Time Temperature Precipitation Wind Pressure Humidity
    00:00 +28°C° 0 mm 1 mps 691 mmHg 48%
    01:00 +28°C° 0 mm 1 mps 690 mmHg 48%
    02:00 +27°C° 0 mm 1 mps 690 mmHg 49%
    03:00 +27°C° 0 mm 1 mps 690 mmHg 49%
    04:00 +26°C° 0 mm 1 mps 691 mmHg 50%
    05:00 +26°C° 0 mm 1 mps 691 mmHg 51%
    06:00 +28°C° 0 mm 2 mps 692 mmHg 47%
    07:00 +29°C° 0 mm 2 mps 693 mmHg 44%
    08:00 +30°C° 0 mm 3 mps 694 mmHg 40%
    09:00 +33°C° 0 mm 3 mps 693 mmHg 37%
    10:00 +34°C° 0 mm 3 mps 693 mmHg 34%
    11:00 +35°C° 0 mm 4 mps 693 mmHg 30%
    12:00 +36°C° 0 mm 4 mps 692 mmHg 30%
    13:00 +36°C° 0 mm 4 mps 691 mmHg 29%
    14:00 +36°C° 0 mm 4 mps 690 mmHg 28%
    15:00 +35°C° 0 mm 4 mps 690 mmHg 30%
    16:00 +34°C° 0 mm 4 mps 690 mmHg 33%
    17:00 +33°C° 0 mm 3 mps 689 mmHg 36%
    18:00 +31°C° 0 mm 3 mps 690 mmHg 39%
    19:00 +29°C° 0 mm 2 mps 690 mmHg 42%
    20:00 +28°C° 0 mm 2 mps 691 mmHg 45%
    21:00 +28°C° 0 mm 2 mps 691 mmHg 45%
    22:00 +27°C° 0 mm 1 mps 691 mmHg 45%
    23:00 +27°C° 0 mm 1 mps 691 mmHg 44%

    26 September, Thursday

    Time Temperature Precipitation Wind Pressure Humidity
    00:00 +27°C° 0 mm 1 mps 691 mmHg 45%
    01:00 +26°C° 0 mm 1 mps 691 mmHg 46%
    02:00 +26°C° 0 mm 1 mps 690 mmHg 46%
    03:00 +26°C° 0 mm 1 mps 691 mmHg 46%
    04:00 +26°C° 0 mm 2 mps 691 mmHg 45%
    05:00 +27°C° 0 mm 2 mps 692 mmHg 44%
    06:00 +27°C° 0 mm 2 mps 693 mmHg 43%
    07:00 +28°C° 0 mm 3 mps 693 mmHg 41%
    08:00 +29°C° 0 mm 3 mps 694 mmHg 40%
    09:00 +30°C° 0 mm 3 mps 694 mmHg 38%
    10:00 +33°C° 0 mm 3 mps 694 mmHg 36%
    11:00 +34°C° 0 mm 4 mps 693 mmHg 34%
    12:00 +34°C° 0 mm 4 mps 692 mmHg 35%
    13:00 +34°C° 0 mm 4 mps 691 mmHg 36%
    14:00 +34°C° 0 mm 4 mps 690 mmHg 37%
    15:00 +33°C° 0 mm 4 mps 690 mmHg 40%
    16:00 +33°C° 0 mm 4 mps 690 mmHg 42%
    17:00 +31°C° 0 mm 3 mps 690 mmHg 45%
    18:00 +30°C° 0 mm 3 mps 691 mmHg 49%
    19:00 +29°C° 0 mm 3 mps 691 mmHg 53%
    20:00 +28°C° 0 mm 2 mps 692 mmHg 57%
    21:00 +28°C° 0 mm 2 mps 692 mmHg 56%
    22:00 +28°C° 0 mm 1 mps 692 mmHg 54%
    23:00 +28°C° 0 mm 1 mps 693 mmHg 53%

    27 September, Friday

    Time Temperature Precipitation Wind Pressure Humidity
    00:00 +27°C° 0 mm 1 mps 692 mmHg 55%
    01:00 +27°C° 0 mm 1 mps 692 mmHg 56%
    02:00 +24°C° 0 mm 0 mps 692 mmHg 58%
    03:00 +26°C° 0 mm 1 mps 692 mmHg 58%
    04:00 +26°C° 0 mm 1 mps 692 mmHg 58%
    05:00 +26°C° 0 mm 1 mps 692 mmHg 58%
    06:00 +27°C° 0 mm 1 mps 693 mmHg 56%
    07:00 +28°C° 0 mm 2 mps 693 mmHg 54%
    08:00 +29°C° 0 mm 2 mps 694 mmHg 52%
    09:00 +30°C° 0 mm 3 mps 694 mmHg 49%
    10:00 +31°C° 0 mm 3 mps 693 mmHg 47%
    11:00 +33°C° 0 mm 4 mps 693 mmHg 44%
    12:00 +33°C° 0.1 mm 4 mps 692 mmHg 45%
    13:00 +33°C° 0.1 mm 4 mps 691 mmHg 46%
    14:00 +33°C° 0.1 mm 5 mps 690 mmHg 47%
    15:00 +32°C° 0.1 mm 5 mps 690 mmHg 51%
    16:00 +30°C° 0.1 mm 4 mps 690 mmHg 55%
    17:00 +29°C° 0.1 mm 4 mps 690 mmHg 59%
    18:00 +28°C° 0 mm 3 mps 690 mmHg 62%
    19:00 +27°C° 0 mm 3 mps 691 mmHg 66%
    20:00 +27°C° 0 mm 2 mps 691 mmHg 69%
    21:00 +26°C° 0 mm 2 mps 691 mmHg 67%
    22:00 +26°C° 0 mm 2 mps 692 mmHg 66%
    23:00 +26°C° 0 mm 1 mps 692 mmHg 65%
    Show more